Tracking 17938 objects as of 23-February-2017
HD Live streaming from Space Station
objects crossing your sky now

NAVSTAR 33 (USA 92)

Track NAVSTAR 33 (USA 92) now!
NAVSTAR 33 (USA 92) is classified as:


NORAD ID: 22700
Int'l Code: 1993-042A
Perigee: 21,196.6 km
Apogee: 21,243.4 km
Inclination: 55.7 °
Period: 760.2 minutes
Semi major axis: 27590 km
RCS: 3.4011 m2 (large)
Launch date: June 26, 1993
Source: United States (US)
Launch site: AIR FORCE EASTERN TEST RANGE (AFETR)
PRN:
Your satellite tracking list
Your tracking list is empty





NASA's NSSDC Master Catalog

Two Line Element Set (TLE):
1 22700U 93042A   17053.27840951  .00000019  00000-0  00000+0 0  9990
2 22700  55.6596 288.0161 0008473 318.0322 209.6005  1.89431577172711
Source of the keplerian elements: AFSPC